Time,TemperatureF,DewpointF,PressureIn,WindDirection,WindDirectionDegrees,WindSpeedMPH,WindSpeedGustMPH,Humidity,HourlyPrecipIn,Conditions,Clouds,dailyrainin,SoftwareType,DateUTC
2013-04-11 00:09:00,70.9,60.0,29.83,East,85,0.0,-999.0,69,-99.99,,,0.00,weatherlink.com 1.10,2013-04-11 04:09:00,
2013-04-11 00:24:00,70.3,60.0,29.84,East,96,0.0,-999.0,70,-99.99,,,0.00,weatherlink.com 1.10,2013-04-11 04:24:00,
2013-04-11 00:39:00,69.6,59.0,29.84,ENE,59,0.0,-999.0,70,-99.99,,,0.00,weatherlink.com 1.10,2013-04-11 04:39:00,
2013-04-11 00:54:00,68.9,59.0,29.84,ENE,59,0.0,-999.0,71,-99.99,,,0.00,weatherlink.com 1.10,2013-04-11 04:54:00,
2013-04-11 01:09:00,68.4,59.0,29.84,ENE,62,0.0,-999.0,72,-99.99,,,0.00,weatherlink.com 1.10,2013-04-11 05:09:00,
2013-04-11 01:24:00,68.1,58.0,29.84,ESE,123,0.0,-999.0,71,-99.99,,,0.00,weatherlink.com 1.10,2013-04-11 05:24:00,
2013-04-11 01:39:00,67.9,58.0,29.84,ESE,117,0.0,-999.0,70,-99.99,,,0.00,weatherlink.com 1.10,2013-04-11 05:39:00,
2013-04-11 01:54:00,67.6,57.0,29.84,ESE,109,0.0,-999.0,70,-99.99,,,0.00,weatherlink.com 1.10,2013-04-11 05:54:00,
2013-04-11 02:09:00,67.3,57.0,29.84,ESE,119,0.0,-999.0,70,-99.99,,,0.00,weatherlink.com 1.10,2013-04-11 06:09:00,
2013-04-11 02:24:00,67.1,57.0,29.83,SE,140,0.0,-999.0,70,-99.99,,,0.00,weatherlink.com 1.10,2013-04-11 06:24:00,
2013-04-11 02:39:00,66.9,57.0,29.83,SE,131,0.0,-999.0,70,-99.99,,,0.00,weatherlink.com 1.10,2013-04-11 06:39:00,
2013-04-11 02:54:00,66.6,57.0,29.83,SE,124,0.0,-999.0,71,-99.99,,,0.00,weatherlink.com 1.10,2013-04-11 06:54:00,
2013-04-11 03:09:00,66.4,57.0,29.83,ESE,120,0.0,-999.0,72,-99.99,,,0.00,weatherlink.com 1.10,2013-04-11 07:09:00,
2013-04-11 03:24:00,65.8,57.0,29.82,SSE,150,0.0,-999.0,73,-99.99,,,0.00,weatherlink.com 1.10,2013-04-11 07:24:00,
2013-04-11 03:39:00,65.5,57.0,29.82,SE,137,0.0,-999.0,74,-99.99,,,0.00,weatherlink.com 1.10,2013-04-11 07:39:00,
2013-04-11 03:54:00,65.2,57.0,29.82,SE,140,0.0,-999.0,75,-99.99,,,0.00,weatherlink.com 1.10,2013-04-11 07:54:00,
2013-04-11 04:09:00,64.8,57.0,29.82,SSE,150,0.0,-999.0,76,-99.99,,,0.00,weatherlink.com 1.10,2013-04-11 08:09:00,
2013-04-11 04:24:00,64.7,58.0,29.82,SE,134,1.0,-999.0,78,-99.99,,,0.00,weatherlink.com 1.10,2013-04-11 08:24:00,
2013-04-11 04:39:00,64.5,58.0,29.82,South,186,0.0,-999.0,79,-99.99,,,0.00,weatherlink.com 1.10,2013-04-11 08:39:00,
2013-04-11 04:54:00,64.3,58.0,29.82,SSE,165,1.0,-999.0,80,-99.99,,,0.00,weatherlink.com 1.10,2013-04-11 08:54:00,
2013-04-11 05:09:00,64.3,58.0,29.82,ENE,71,7.0,-999.0,81,-99.99,,,0.00,weatherlink.com 1.10,2013-04-11 09:09:00,
2013-04-11 05:24:00,64.2,59.0,29.82,SSE,160,0.0,-999.0,82,-99.99,,,0.00,weatherlink.com 1.10,2013-04-11 09:24:00,
2013-04-11 05:39:00,63.9,59.0,29.82,ESE,121,0.0,-999.0,83,-99.99,,,0.00,weatherlink.com 1.10,2013-04-11 09:39:00,
2013-04-11 05:54:00,63.9,59.0,29.82,SSE,165,0.0,-999.0,84,-99.99,,,0.00,weatherlink.com 1.10,2013-04-11 09:54:00,
2013-04-11 06:09:00,63.7,59.0,29.83,East,83,0.0,-999.0,85,-99.99,,,0.00,weatherlink.com 1.10,2013-04-11 10:09:00,
2013-04-11 06:24:00,63.7,60.0,29.83,ESE,123,1.0,-999.0,86,-99.99,,,0.00,weatherlink.com 1.10,2013-04-11 10:24:00,
2013-04-11 06:39:00,63.5,59.0,29.83,SSE,161,0.0,-999.0,86,-99.99,,,0.00,weatherlink.com 1.10,2013-04-11 10:39:00,
2013-04-11 06:54:00,63.5,60.0,29.84,ESE,114,4.0,-999.0,87,-99.99,,,0.00,weatherlink.com 1.10,2013-04-11 10:54:00,
2013-04-11 07:09:00,63.7,60.0,29.84,SSE,158,0.0,-999.0,87,-99.99,,,0.00,weatherlink.com 1.10,2013-04-11 11:09:00,
2013-04-11 07:24:00,64.0,60.0,29.85,SSW,198,0.0,-999.0,87,-99.99,,,0.00,weatherlink.com 1.10,2013-04-11 11:24:00,
2013-04-11 07:39:00,64.3,60.0,29.86,SW,223,5.0,-999.0,86,-99.99,,,0.00,weatherlink.com 1.10,2013-04-11 11:39:00,
2013-04-11 07:54:00,64.7,60.0,29.86,WSW,239,0.0,-999.0,85,-99.99,,,0.00,weatherlink.com 1.10,2013-04-11 11:54:00,
2013-04-11 08:09:00,64.8,60.0,29.86,South,176,0.0,-999.0,84,-99.99,,,0.00,weatherlink.com 1.10,2013-04-11 12:09:00,
2013-04-11 08:24:00,65.2,60.0,29.86,SW,223,3.0,-999.0,84,-99.99,,,0.00,weatherlink.com 1.10,2013-04-11 12:24:00,
2013-04-11 08:39:00,65.8,61.0,29.87,South,171,5.0,-999.0,83,-99.99,,,0.00,weatherlink.com 1.10,2013-04-11 12:39:00,
2013-04-11 08:54:00,66.4,61.0,29.87,SSW,192,5.0,-999.0,82,-99.99,,,0.00,weatherlink.com 1.10,2013-04-11 12:54:00,
2013-04-11 09:09:00,67.1,60.0,29.87,South,176,1.0,-999.0,79,-99.99,,,0.00,weatherlink.com 1.10,2013-04-11 13:09:00,
2013-04-11 09:24:00,67.9,61.0,29.87,SSE,168,0.0,-999.0,78,-99.99,,,0.00,weatherlink.com 1.10,2013-04-11 13:24:00,
2013-04-11 09:39:00,68.6,61.0,29.86,SSE,154,0.0,-999.0,76,-99.99,,,0.00,weatherlink.com 1.10,2013-04-11 13:39:00,
2013-04-11 09:55:00,69.9,61.0,29.86,South,169,0.0,-999.0,74,-99.99,,,0.00,weatherlink.com 1.10,2013-04-11 13:55:00,
2013-04-11 10:09:00,70.6,61.0,29.86,South,172,2.0,-999.0,72,-99.99,,,0.00,weatherlink.com 1.10,2013-04-11 14:09:00,
2013-04-11 10:24:00,70.6,61.0,29.86,SSE,162,0.0,-999.0,71,-99.99,,,0.00,weatherlink.com 1.10,2013-04-11 14:24:00,
2013-04-11 10:39:00,70.9,61.0,29.86,SSE,161,8.0,-999.0,70,-99.99,,,0.00,weatherlink.com 1.10,2013-04-11 14:39:00,
2013-04-11 10:55:00,70.3,61.0,29.86,SSW,203,0.0,-999.0,72,-99.99,,,0.00,weatherlink.com 1.10,2013-04-11 14:55:00,
2013-04-11 11:10:00,70.4,61.0,29.86,SW,222,12.0,-999.0,71,-99.99,,,0.00,weatherlink.com 1.10,2013-04-11 15:10:00,
2013-04-11 11:25:00,70.8,60.0,29.86,South,179,4.0,-999.0,69,-99.99,,,0.00,weatherlink.com 1.10,2013-04-11 15:25:00,
2013-04-11 11:40:00,71.5,61.0,29.86,SE,127,1.0,-999.0,69,-99.99,,,0.00,weatherlink.com 1.10,2013-04-11 15:40:00,
2013-04-11 11:55:00,73.2,62.0,29.86,SE,141,0.0,-999.0,67,-99.99,,,0.00,weatherlink.com 1.10,2013-04-11 15:55:00,
2013-04-11 12:10:00,74.4,63.0,29.85,SE,144,0.0,-999.0,67,-99.99,,,0.00,weatherlink.com 1.10,2013-04-11 16:10:00,
2013-04-11 12:25:00,73.9,61.0,29.84,South,191,1.0,-999.0,64,-99.99,,,0.00,weatherlink.com 1.10,2013-04-11 16:25:00,
2013-04-11 12:40:00,75.6,61.0,29.84,East,80,0.0,-999.0,61,-99.99,,,0.00,weatherlink.com 1.10,2013-04-11 16:40:00,
2013-04-11 12:55:00,75.6,61.0,29.82,South,175,2.0,-999.0,61,-99.99,,,0.00,weatherlink.com 1.10,2013-04-11 16:55:00,
2013-04-11 13:10:00,77.0,62.0,29.82,ESE,104,0.0,-999.0,61,-99.99,,,0.00,weatherlink.com 1.10,2013-04-11 17:10:00,
2013-04-11 13:25:00,76.5,60.0,29.81,SSE,161,1.0,-999.0,56,-99.99,,,0.00,weatherlink.com 1.10,2013-04-11 17:25:00,
2013-04-11 13:40:00,78.1,59.0,29.80,South,191,0.0,-999.0,52,-99.99,,,0.00,weatherlink.com 1.10,2013-04-11 17:40:00,
2013-04-11 13:55:00,78.3,60.0,29.79,South,189,0.0,-999.0,54,-99.99,,,0.00,weatherlink.com 1.10,2013-04-11 17:55:00,
2013-04-11 14:10:00,79.9,58.0,29.79,SSE,165,3.0,-999.0,48,-99.99,,,0.00,weatherlink.com 1.10,2013-04-11 18:10:00,
2013-04-11 14:25:00,79.8,59.0,29.78,SE,141,0.0,-999.0,50,-99.99,,,0.00,weatherlink.com 1.10,2013-04-11 18:25:00,
2013-04-11 14:40:00,79.2,59.0,29.77,South,182,7.0,-999.0,50,-99.99,,,0.00,weatherlink.com 1.10,2013-04-11 18:40:00,
2013-04-11 14:55:00,80.3,59.0,29.77,SW,219,2.0,-999.0,48,-99.99,,,0.00,weatherlink.com 1.10,2013-04-11 18:55:00,
2013-04-11 15:10:00,80.3,56.0,29.76,SSE,158,3.0,-999.0,44,-99.99,,,0.00,weatherlink.com 1.10,2013-04-11 19:10:00,
2013-04-11 15:25:00,81.2,58.0,29.75,SSW,195,0.0,-999.0,45,-99.99,,,0.00,weatherlink.com 1.10,2013-04-11 19:25:00,
2013-04-11 15:40:00,80.9,57.0,29.74,SW,234,0.0,-999.0,44,-99.99,,,0.00,weatherlink.com 1.10,2013-04-11 19:40:00,
2013-04-11 15:55:00,80.7,57.0,29.73,SSW,192,5.0,-999.0,44,-99.99,,,0.00,weatherlink.com 1.10,2013-04-11 19:55:00,
2013-04-11 16:10:00,82.0,56.0,29.73,SW,229,0.0,-999.0,41,-99.99,,,0.00,weatherlink.com 1.10,2013-04-11 20:10:00,
2013-04-11 16:25:00,81.1,56.0,29.73,ESE,114,1.0,-999.0,43,-99.99,,,0.00,weatherlink.com 1.10,2013-04-11 20:25:00,
2013-04-11 16:40:00,81.1,57.0,29.72,ESE,113,0.0,-999.0,44,-99.99,,,0.00,weatherlink.com 1.10,2013-04-11 20:40:00,
2013-04-11 16:55:00,82.2,56.0,29.71,SSE,147,3.0,-999.0,41,-99.99,,,0.00,weatherlink.com 1.10,2013-04-11 20:55:00,
2013-04-11 17:10:00,81.4,57.0,29.71,SE,124,0.0,-999.0,44,-99.99,,,0.00,weatherlink.com 1.10,2013-04-11 21:10:00,
2013-04-11 17:25:00,81.2,57.0,29.70,ESE,110,0.0,-999.0,44,-99.99,,,0.00,weatherlink.com 1.10,2013-04-11 21:25:00,
2013-04-11 17:40:00,81.1,57.0,29.70,SE,141,0.0,-999.0,44,-99.99,,,0.00,weatherlink.com 1.10,2013-04-11 21:40:00,
2013-04-11 17:55:00,81.1,57.0,29.69,ESE,121,0.0,-999.0,44,-99.99,,,0.00,weatherlink.com 1.10,2013-04-11 21:55:00,
2013-04-11 18:10:00,80.7,57.0,29.68,ENE,61,0.0,-999.0,45,-99.99,,,0.00,weatherlink.com 1.10,2013-04-11 22:10:00,
2013-04-11 18:25:00,80.1,57.0,29.69,East,88,0.0,-999.0,46,-99.99,,,0.00,weatherlink.com 1.10,2013-04-11 22:25:00,
2013-04-11 18:40:00,79.4,58.0,29.68,East,88,0.0,-999.0,48,-99.99,,,0.00,weatherlink.com 1.10,2013-04-11 22:40:00,
2013-04-11 18:55:00,78.8,57.0,29.68,East,88,0.0,-999.0,48,-99.99,,,0.00,weatherlink.com 1.10,2013-04-11 22:55:00,
2013-04-11 19:10:00,78.6,58.0,29.68,East,92,0.0,-999.0,49,-99.99,,,0.00,weatherlink.com 1.10,2013-04-11 23:10:00,
2013-04-11 19:25:00,77.7,58.0,29.68,East,92,0.0,-999.0,51,-99.99,,,0.00,weatherlink.com 1.10,2013-04-11 23:25:00,
2013-04-11 19:40:00,77.0,58.0,29.68,East,92,0.0,-999.0,52,-99.99,,,0.00,weatherlink.com 1.10,2013-04-11 23:40:00,
2013-04-11 19:55:00,76.1,58.0,29.68,East,92,0.0,-999.0,54,-99.99,,,0.00,weatherlink.com 1.10,2013-04-11 23:55:00,
2013-04-11 20:10:00,74.9,59.0,29.68,East,92,0.0,-999.0,57,-99.99,,,0.00,weatherlink.com 1.10,2013-04-12 00:10:00,
2013-04-11 20:25:00,74.6,59.0,29.68,East,92,0.0,-999.0,58,-99.99,,,0.00,weatherlink.com 1.10,2013-04-12 00:25:00,
2013-04-11 20:40:00,73.9,59.0,29.67,East,92,0.0,-999.0,59,-99.99,,,0.00,weatherlink.com 1.10,2013-04-12 00:40:00,
2013-04-11 20:55:00,73.3,59.0,29.67,East,92,0.0,-999.0,61,-99.99,,,0.00,weatherlink.com 1.10,2013-04-12 00:55:00,
2013-04-11 21:10:00,73.0,59.0,29.67,ESE,103,0.0,-999.0,61,-99.99,,,0.00,weatherlink.com 1.10,2013-04-12 01:10:00,
2013-04-11 21:25:00,73.9,61.0,29.68,ESE,116,0.0,-999.0,65,-99.99,,,0.00,weatherlink.com 1.10,2013-04-12 01:25:00,
2013-04-11 21:40:00,74.4,63.0,29.69,East,79,10.0,-999.0,68,-99.99,,,0.00,weatherlink.com 1.10,2013-04-12 01:40:00,
2013-04-11 21:55:00,74.4,64.0,29.68,ESE,106,0.0,-999.0,70,-99.99,,,0.00,weatherlink.com 1.10,2013-04-12 01:55:00,
2013-04-11 22:10:00,74.0,64.0,29.69,NE,45,0.0,-999.0,72,-99.99,,,0.00,weatherlink.com 1.10,2013-04-12 02:10:00,
2013-04-11 22:25:00,73.9,65.0,29.69,SSE,158,0.0,-999.0,73,-99.99,,,0.00,weatherlink.com 1.10,2013-04-12 02:25:00,
2013-04-11 22:40:00,73.9,65.0,29.69,SSE,158,2.0,-999.0,74,-99.99,,,0.00,weatherlink.com 1.10,2013-04-12 02:40:00,
2013-04-11 22:55:00,73.3,65.0,29.68,ENE,76,10.0,-999.0,75,-99.99,,,0.00,weatherlink.com 1.10,2013-04-12 02:55:00,
2013-04-11 23:10:00,73.0,65.0,29.68,ENE,75,2.0,-999.0,76,-99.99,,,0.00,weatherlink.com 1.10,2013-04-12 03:10:00,
2013-04-11 23:25:00,72.7,66.0,29.68,East,83,0.0,-999.0,78,-99.99,,,0.00,weatherlink.com 1.10,2013-04-12 03:25:00,
2013-04-11 23:40:00,72.3,65.0,29.68,East,97,0.0,-999.0,79,-99.99,,,0.00,weatherlink.com 1.10,2013-04-12 03:40:00,
2013-04-11 23:55:00,72.1,65.0,29.69,ENE,61,0.0,-999.0,79,-99.99,,,0.00,weatherlink.com 1.10,2013-04-12 03:55:00,